Date,TemperatureHighF,TemperatureAvgF,TemperatureLowF,DewpointHighF,DewpointAvgF,DewpointLowF,HumidityHigh,HumidityAvg,HumidityLow,PressureMaxIn,PressureMinIn,WindSpeedMaxMPH,WindSpeedAvgMPH,GustSpeedMaxMPH,PrecipitationSumIn
2013-5-1,67,53,41,-100,-100,-100,0,0,100,31.00,29.88,20,8,26,0.00
2013-5-2,46,41,37,-100,-100,-100,0,0,100,31.02,30.20,26,12,31,0.00
2013-5-3,48,41,37,-100,-100,-100,0,0,100,30.94,30.07,13,6,21,0.00
2013-5-4,67,49,39,-100,-100,-100,0,0,100,30.84,30.06,12,5,16,0.00
2013-5-5,59,51,46,-100,-100,-100,0,0,100,30.85,30.05,15,6,18,0.00
2013-5-6,58,47,39,-100,-100,-100,0,0,100,30.83,30.02,13,5,17,0.00
2013-5-7,55,49,41,-100,-100,-100,0,0,100,30.82,30.02,13,6,17,0.00
2013-5-8,65,55,43,-100,-100,-100,0,0,100,30.77,29.99,9,4,16,0.00
2013-5-9,56,48,41,-100,-100,-100,0,0,100,30.74,29.96,21,5,25,0.00
2013-5-10,41,39,38,-100,-100,-100,0,0,100,30.74,29.97,28,19,31,0.00
2013-5-11,42,38,34,-100,-100,-100,0,0,100,30.67,29.75,29,10,31,0.00
2013-5-12,39,36,35,-100,-100,-100,0,0,100,30.80,29.80,34,27,42,0.00
2013-5-13,46,41,36,-100,-100,-100,0,0,100,30.88,30.03,19,12,24,0.00
2013-5-14,63,50,41,-100,-100,-100,0,0,100,30.73,29.65,13,6,26,0.00
2013-5-15,62,52,44,-100,-100,-100,0,0,100,30.48,29.45,28,14,31,0.00
2013-5-16,55,46,42,-100,-100,-100,0,0,100,30.79,29.77,14,6,19,0.00
2013-5-17,54,44,40,-100,-100,-100,0,0,100,30.91,30.10,9,5,12,0.00
2013-5-18,73,56,47,-100,-100,-100,0,0,100,30.89,30.03,8,4,14,0.00
2013-5-19,73,62,49,-100,-100,-100,0,0,100,30.73,29.87,9,7,19,0.00
2013-5-20,74,60,48,-100,-100,-100,0,0,100,30.59,29.75,11,6,21,0.00
2013-5-21,71,56,45,-100,-100,-100,0,0,100,30.46,29.69,18,6,28,0.00
2013-5-22,50,47,45,-100,-100,-100,0,0,100,30.47,29.70,19,7,22,0.00
2013-5-23,46,43,41,-100,-100,-100,0,0,100,30.96,29.78,25,19,30,0.00
2013-5-24,47,43,39,-100,-100,-100,0,0,100,31.14,30.28,17,10,23,0.00
2013-5-25,54,45,37,-100,-100,-100,0,0,100,31.16,30.34,8,3,11,0.00
2013-5-26,56,47,38,-100,-100,-100,0,0,100,31.09,30.25,7,3,8,0.00
2013-5-27,66,54,43,-100,-100,-100,0,0,100,30.97,30.01,11,4,17,0.00
2013-5-28,60,52,48,-100,-100,-100,0,0,100,30.70,29.76,8,4,14,0.00
2013-5-29,64,54,45,-100,-100,-100,0,0,100,30.65,29.76,13,6,16,0.00
2013-5-30,81,67,54,-100,-100,-100,0,0,100,30.63,29.92,12,5,25,0.00
2013-5-31,69,63,54,-100,-100,-100,0,0,100,30.59,29.76,18,8,26,0.00